Location: Foligno
(42.9600°N, 12.7050°E)
Time: 11:32:19
(UTC+02:00)

ISS - Pass Details

Date: 07 May 2021
Orbit: 417 x 422 km, 51.6° (Epoch: 15 May)

Event Time Altitude Azimuth Distance (km) Brightness Sun altitude
Rises 05:09:22 0° 301° (WNW) 2,370 -0.2 -8.2°
Reaches altitude 10° 05:11:52 10° 319° (NW) 1,506 -1.0 -7.8°
Maximum altitude 05:14:27 20° 9° (N) 1,039 -1.2 -7.4°
Drops below altitude 10° 05:17:02 10° 59° (ENE) 1,506 0.9 -7.0°
Sets 05:19:31 0° 77° (ENE) 2,370 1.8 -6.6°
